Tracking 30995 objects as of 5-Jul-2025
HD Live streaming from Space Station
objects crossing your sky now

BLOCK DM-SL R/B

Track BLOCK DM-SL R/B now!
10-day predictions


NORAD ID: 32730
Int'l Code: 2008-013B
Perigee: 215.4 km
Apogee: 20,045.3 km
Inclination: 0.5 °
Period: 351.6 minutes
Semi major axis: 16501 km
RCS: 20.4628 m2 (large)
Launch date: March 19, 2008
Source: Sea Launch (SEAL)
Launch site: SEA LAUNCH (SEAL)

Note: This is a ROCKET BODY
Your satellite tracking list
Your tracking list is empty




NASA's NSSDC Master Catalog

Two Line Element Set (TLE):
1 32730U 08013B   25185.80741011  .00018924  00000-0  77534-3 0  9993
2 32730   0.4953 306.4129 6008554  12.2495   8.7377  4.09565880189559
Source of the keplerian elements: AFSPC